Location: Isles
(48.9125°N, 2.8272°E)
Time: 21:03:33
(UTC+00:00)

Cosmos 1825 - Pass Details

Date: 03 February 2023
Orbit: 481 x 488 km, 82.5° (Epoch: 21 March)

Event Time Altitude Azimuth Distance (km) Brightness Sun altitude
Rises 18:14:37 0° 184° (S) 2,570 5.9 -14.3°
Reaches altitude 10° 18:16:43 10° 182° (S) 1,694 4.9 -14.6°
Maximum altitude 18:20:25 75° 98° (E) 522 2.0 -15.2°
Drops below altitude 10° 18:24:09 10° 13° (NNE) 1,711 4.6 -15.8°
Enters shadow 18:26:12 - 12° (NNE) 2,567 5.6 -16.2°
